Regional Weather Roundup
Issued by NWS

Home | Current Version | Previous Version | Text Only | Print | Product List | Glossary Off
Versions: 1 2 3 4 5 6 7 8 9 10 11 12 13 14 15 16 17 18 19 20 21 22 23 24 25 26 27 28 29 30 31 32 33 34 35 36 37 38 39 40 41 42 43 44 45 46 47 48 49 50

000
ASUS43 KIND 071709
RWRIN

WEATHER ROUNDUP FOR INDIANA
NATIONAL WEATHER SERVICE INDIANAPOLIS IN
1200 PM EST WED DEC 07 2016

NOTE: "FAIR" INDICATES FEW OR NO CLOUDS BELOW 12,000 FEET WITH NO
SIGNIFICANT WEATHER AND/OR OBSTRUCTIONS TO VISIBILITY.

* - STATION DOES NOT REPORT WEATHER SUCH AS PRECIPITATION OR FOG.

+ - STATION NOT QUALITY CONTROLLED BY THE NATIONAL WEATHER SERVICE.
    USE DATA WITH CAUTION...ESPECIALLY DEWPOINT AND RELATIVE
    HUMIDITY OBSERVATIONS.

INZ001>003-010>013-019-020-071800-
NORTHWEST INDIANA

CITY           SKY/WX    TMP DP  RH WIND       PRES   REMARKS
GARY /AIRPORT/ PTSUNNY   30  19  64 SW14      30.12F WCI  20
KNOX *+        CLOUDY    32   5  32 W14G21    30.12S WCI  22
MICHIGAN CITY+ SUNNY     32  21  64 SW10      30.10F WCI  24
MONTICELLO +   PTSUNNY   32  19  58 SW14      30.14F WCI  22
RENSSELAER +     N/A     32  27  80 SW13      30.14F WCI  22
VALPARAISO     CLOUDY    29  19  66 SW13      30.12S WCI  19

$$

LMZ046-743>745-071800-
SOUTHERN LAKE MICHIGAN

STATION/POSITION TIME  TEMP    WIND        PRES    WAVE
                       AIR SEA DIR/SP/G            HT
                 (UTC) (F)     (DEG/KT/KT) (MB)    (FT)
BURNS HARBOR     1640   30     230/ 13/ 17 1020.0S
MICHIGAN CITY    1640   30     210/ 18/ 20   N/A

$$

INZ004-005-014>016-021>024-071800-
NORTH CENTRAL INDIANA

CITY           SKY/WX    TMP DP  RH WIND       PRES   REMARKS
ELKHART        MOSUNNY   32  21  64 W12G18    30.07F WCI  23
GOSHEN           N/A     32  20  61 MISG      30.08S
LOGANSPORT +   MOSUNNY   32  23  69 SW16G22   30.14F WCI  21
PERU/GRISSOM   PTSUNNY   32  22  67 W16       30.11F WCI  21
ROCHESTER +    SUNNY     34  27  75 W16       30.12F WCI  23
SOUTH BEND     PTSUNNY   30  21  69 SW14      30.09F WCI  19
WARSAW +       SUNNY     32  21  64 SW10G17   30.10S WCI  24

$$

INZ006>009-017-018-025>027-071800-
NORTHEAST INDIANA

CITY           SKY/WX    TMP DP  RH WIND       PRES   REMARKS
ANGOLA *+      SUNNY     32  21  64 W12       30.05S WCI  23
AUBURN +       SUNNY     32  23  69 SW10G20   30.10R WCI  24
FORT WAYNE     PTSUNNY   32  23  69 SW16      30.12R WCI  21
HUNTINGTON +   PTSUNNY   32  21  65 W9G18     30.12S WCI  24
KENDALLVILLE + MOSUNNY   32  22  65 W10       30.08R WCI  24

$$

INZ028-029-035-036-043>045-051>053-071800-
WEST CENTRAL INDIANA

CITY           SKY/WX    TMP DP  RH WIND       PRES   REMARKS
CRAWFORDSVL +  SUNNY     32  25  74 SW9       30.16F WCI  24
GREENCASTLE +  CLOUDY    32  23  69 W5        30.18S WCI  27
LAFAYETTE      CLOUDY    32  21  64 W10       30.16F WCI  24
TERRE HAUTE    CLOUDY    35  23  61 SW9       30.19F WCI  28

$$

INZ030>032-037>040-046>048-054>057-064-065-071800-
CENTRAL INDIANA

CITY           SKY/WX    TMP DP  RH WIND       PRES   REMARKS
ANDERSON       PTSUNNY   34  21  60 W12       30.15S WCI  25
CP ATTERBURY + CLOUDY    36  25  64 W6        30.18S
COLUMBUS       CLOUDY    34  25  69 SW5       30.18F WCI  30
FISHERS *+     CLOUDY    32  25  74 SW8       30.16  WCI  25
FRANKFORT +    CLOUDY    37  27  67 W12       30.16F
GREENWOOD *+   CLOUDY    34  23  64 W8        30.17F WCI  27
INDIANAPOLIS   PTSUNNY   34  22  61 SW10      30.16F WCI  26
-EAGLE CREEK   CLOUDY    34  22  61 SW8       30.16F WCI  27
KOKOMO +       PTSUNNY   34  22  61 W12       30.14F WCI  25
MARION +       SUNNY     32  23  70 W13       30.14F WCI  22
MT COMFORT *+  CLOUDY    34  23  64 SW7       30.16F WCI  28
SHELBYVILLE    CLOUDY    34  22  61 SW8       30.16S WCI  27
ZIONSVILLE +   CLOUDY    31  22  69 SW13      30.16S WCI  21

$$

INZ033-034-041-042-049-050-058-059-071800-
EAST CENTRAL INDIANA

CITY           SKY/WX    TMP DP  RH WIND       PRES   REMARKS
MUNCIE         PTSUNNY   34  22  61 W12       30.14F WCI  25

$$

INZ060-061-067>069-081>083-085>088-071800-
SOUTHWEST INDIANA

CITY           SKY/WX    TMP DP  RH WIND       PRES   REMARKS
EVANSVILLE     PTSUNNY   40  21  46 NE3       30.21F
HUNTINGBURG *+ SUNNY     38  24  57 CALM      30.20F
WASHINGTON +   CLOUDY    35  24  63 W5        30.21F WCI  31

$$

INZ062-063-066-070>080-084-089>092-071800-
SOUTH CENTRAL AND SOUTHEAST INDIANA

CITY           SKY/WX    TMP DP  RH WIND       PRES   REMARKS
BLOOMINGTON    PTSUNNY   35  22  58 SW6       30.18S WCI  30
MADISON *+     PTSUNNY   36  25  64 SW3       30.20F
NORTH VERNON + PTSUNNY   36  28  75 CALM      30.18F

$$





USA.gov is the U.S. government's official web portal to all federal, state and local government web resources and services.